Weather History for Glasgow, United Kingdom

Change the Weather History Date:

Friday, October 24, 2014

  Actual Average Record
Temperature  
Mean Temperature 48 °F -  
Max Temperature 51 °F 48 °F 60 °F (1996)
Min Temperature 44 °F 38 °F 26 °F (2010)
Degree Days  
Heating Degree Days 18    
Moisture  
Dew Point 45 °F    
Average Humidity 84    
Maximum Humidity 93    
Minimum Humidity 76    
Precipitation  
Precipitation 0.00 in - - ()
Sea Level Pressure  
Sea Level Pressure 29.73 in    
Wind  
Wind Speed 10 mph ()    
Max Wind Speed 20 mph    
Max Gust Speed -    
Visibility 6.2 miles    
Events Rain    
Averages and records for this station are not official NWS values.
T = Trace of Precipitation, MM = Missing Value Source: Averaged Metar Reports

Daily Weather History Graph

Daily Weather History Graph

Search for Another Location

Airport:

Trip Planner

Search our weather history database for the weather conditions in past years. The results will help you decide how hot, cold, wet, or windy it might be!

Date:

Astronomy

Oct. 24, 2014 Rise Set
Actual Time 8:07 AM BST 5:55 PM BST
Civil Twilight 7:28 AM BST 6:34 PM BST
Nautical Twilight 6:45 AM BST 7:17 PM BST
Astronomical Twilight 6:02 AM BST 8:00 PM BST
Moon 8:36 AM BST (10/24) 6:19 PM BST (10/24)
Length of Visible Light 11h 05m
Length of Day
9h 48m
New Moon, 0% of the Moon is Illuminated
Oct 24
New Moon
Oct 31
First Quarter
Nov 6
Full
Nov 14
Last Quarter
Nov 22
New

Hourly Weather History & Observations

Time (BST) Temp. Windchill Dew Point Humidity Pressure Visibility Wind Dir Wind Speed Gust Speed Precip Events Conditions
12:20 AM 50.0 °F - 46.4 °F 87% 29.74 in 6.2 mi West 5.8 mph - N/A   Mostly Cloudy
12:50 AM 50.0 °F - 46.4 °F 87% 29.74 in 6.2 mi WSW 13.8 mph - N/A   Overcast
1:20 AM 50.0 °F - 46.4 °F 87% 29.74 in 6.2 mi WSW 9.2 mph - N/A   Overcast
1:50 AM 50.0 °F - 46.4 °F 87% 29.74 in 6.2 mi WSW 6.9 mph - N/A   Mostly Cloudy
2:20 AM 50.0 °F - 46.4 °F 87% 29.74 in 6.2 mi WSW 8.1 mph - N/A   Mostly Cloudy
2:50 AM 48.2 °F - 46.4 °F 93% 29.74 in 6.2 mi WSW 9.2 mph - N/A Rain Light Rain
3:20 AM 48.2 °F - 44.6 °F 87% 29.74 in 6.2 mi West 12.7 mph - N/A   Mostly Cloudy
3:50 AM 48.2 °F - 42.8 °F 82% 29.74 in 6.2 mi WSW 8.1 mph - N/A   Scattered Clouds
4:20 AM 44.6 °F 41.4 °F 42.8 °F 93% 29.74 in 6.2 mi WSW 5.8 mph - N/A   Scattered Clouds
4:50 AM 48.2 °F - 42.8 °F 82% 29.74 in 6.2 mi West 6.9 mph - N/A   Overcast
5:20 AM 48.2 °F - 44.6 °F 87% 29.74 in 6.2 mi WSW 6.9 mph - N/A   Mostly Cloudy
5:50 AM 46.4 °F 44.3 °F 44.6 °F 93% 29.74 in 6.2 mi SW 4.6 mph - N/A   Mostly Cloudy
6:20 AM 48.2 °F - 44.6 °F 87% 29.74 in 6.2 mi SSW 6.9 mph - N/A   Unknown
6:50 AM 46.4 °F 41.9 °F 42.8 °F 87% 29.74 in 6.2 mi SW 9.2 mph - N/A   Scattered Clouds
7:20 AM 48.2 °F - 42.8 °F 82% 29.74 in 6.2 mi SW 11.5 mph - N/A   Partly Cloudy
7:50 AM 46.4 °F 41.9 °F 42.8 °F 87% 29.74 in 6.2 mi SSW 9.2 mph - N/A   Unknown
8:20 AM 48.2 °F - 42.8 °F 82% 29.74 in 6.2 mi SSW 8.1 mph - N/A   Unknown
8:50 AM 48.2 °F - 44.6 °F 87% 29.77 in 6.2 mi SW 8.1 mph - N/A   Partly Cloudy
9:20 AM 50.0 °F - 44.6 °F 82% 29.77 in 6.2 mi SW 12.7 mph - N/A   Partly Cloudy
9:50 AM 50.0 °F - 44.6 °F 82% 29.77 in 6.2 mi SW 12.7 mph - N/A   Partly Cloudy
10:20 AM 50.0 °F - 44.6 °F 82% 29.77 in 6.2 mi SW 12.7 mph - N/A   Scattered Clouds
10:50 AM 51.8 °F - 44.6 °F 76% 29.77 in 6.2 mi SW 11.5 mph - N/A   Scattered Clouds
11:20 AM 51.8 °F - 44.6 °F 76% 29.77 in 6.2 mi SW 16.1 mph - N/A   Unknown
11:50 AM 51.8 °F - 44.6 °F 76% 29.74 in 6.2 mi SW 19.6 mph - N/A   Mostly Cloudy
12:20 PM 51.8 °F - 44.6 °F 76% 29.74 in 6.2 mi SW 15.0 mph - N/A Rain Light Rain
12:50 PM 50.0 °F - 44.6 °F 82% 29.74 in 6.2 mi SW 17.3 mph - N/A Rain Light Rain
1:20 PM 50.0 °F - 46.4 °F 87% 29.74 in 6.2 mi SW 16.1 mph - N/A Rain Light Rain
1:50 PM 50.0 °F - 46.4 °F 87% 29.74 in 6.2 mi SW 15.0 mph - N/A Rain Light Rain
2:20 PM 50.0 °F - 46.4 °F 87% 29.74 in 6.2 mi SW 12.7 mph - N/A Rain Light Rain
2:50 PM 50.0 °F - 46.4 °F 87% 29.74 in 6.2 mi SW 13.8 mph - N/A Rain Light Rain
3:20 PM 51.8 °F - 46.4 °F 82% 29.71 in 6.2 mi SW 13.8 mph - N/A Rain Light Rain
3:50 PM 51.8 °F - 46.4 °F 82% 29.71 in 6.2 mi SW 13.8 mph - N/A   Mostly Cloudy
4:20 PM 51.8 °F - 46.4 °F 82% 29.71 in 6.2 mi SW 13.8 mph - N/A   Mostly Cloudy
4:50 PM 51.8 °F - 44.6 °F 76% 29.71 in 6.2 mi SSW 15.0 mph - N/A   Mostly Cloudy
5:20 PM 50.0 °F - 44.6 °F 82% 29.71 in 6.2 mi SSW 13.8 mph - N/A   Mostly Cloudy
5:50 PM 50.0 °F - 44.6 °F 82% 29.71 in 6.2 mi SSW 13.8 mph - N/A Rain Light Rain
6:20 PM 51.8 °F - 44.6 °F 76% 29.71 in 6.2 mi SW 16.1 mph - N/A Rain Light Rain
6:50 PM 50.0 °F - 46.4 °F 87% 29.71 in 6.2 mi WSW 11.5 mph - N/A Rain Light Rain
7:20 PM 50.0 °F - 46.4 °F 87% 29.71 in 6.2 mi SW 12.7 mph - N/A   Mostly Cloudy
7:50 PM 51.8 °F - 46.4 °F 82% 29.71 in 6.2 mi SW 16.1 mph - N/A Rain Light Rain
8:20 PM 50.0 °F - 44.6 °F 82% 29.71 in 6.2 mi WSW 17.3 mph - N/A   Partly Cloudy
8:50 PM 50.0 °F - 44.6 °F 82% 29.71 in 6.2 mi SW 17.3 mph - N/A   Partly Cloudy
9:20 PM 50.0 °F - 44.6 °F 82% 29.71 in 6.2 mi SW 18.4 mph - N/A   Unknown
9:50 PM 48.2 °F - 42.8 °F 82% 29.74 in 6.2 mi SSW 11.5 mph - N/A   Scattered Clouds
10:20 PM 50.0 °F - 44.6 °F 82% 29.74 in 6.2 mi SSW 10.4 mph - N/A   Partly Cloudy
10:50 PM 50.0 °F - 44.6 °F 82% 29.71 in 6.2 mi SSW 12.7 mph - N/A   Scattered Clouds
11:20 PM 50.0 °F - 44.6 °F 82% 29.71 in 6.2 mi SW 13.8 mph - N/A   Scattered Clouds
11:50 PM 50.0 °F - 44.6 °F 82% 29.71 in 6.2 mi SW 16.1 mph - N/A   Partly Cloudy